When you browse on this site, cookies collect data to enhance your experience and personalize the content and advertising you see.
Visit our Privacy Policy to learn more. By continuing to use the site, you agree to this use of cookies and data.
  • In Austria
  • List of Countries
  • For 7 days
  • Water Temperature
  • Satellite Maps
  • Weather Map
  • News
  • Weather Widgets
  • user-avatar
    Login

    Hourly Weather Rondônia

    Today, 25 April, Thursday

    Time Temperature Precipitation Wind Pressure Humidity
    00:00 +23°C° 0 mm 0 mps 739 mmHg 95%
    01:00 +23°C° 0 mm 0 mps 739 mmHg 95%
    02:00 +23°C° 0 mm 0 mps 740 mmHg 94%
    03:00 +23°C° 0 mm 0 mps 739 mmHg 95%
    04:00 +23°C° 0 mm 0 mps 739 mmHg 95%
    05:00 +22°C° 0 mm 0 mps 739 mmHg 95%
    06:00 +23°C° 0 mm 0 mps 740 mmHg 93%
    07:00 +24°C° 0 mm 0 mps 740 mmHg 90%
    08:00 +26°C° 0 mm 0 mps 740 mmHg 85%
    09:00 +28°C° 0 mm 0 mps 740 mmHg 75%
    10:00 +32°C° 0 mm 1 mps 740 mmHg 64%
    11:00 +34°C° 0 mm 1 mps 740 mmHg 54%
    12:00 +34°C° 0 mm 1 mps 740 mmHg 54%
    13:00 +34°C° 0 mm 1 mps 739 mmHg 55%
    14:00 +32°C° 0 mm 0 mps 738 mmHg 56%
    15:00 +32°C° 0 mm 0 mps 738 mmHg 59%
    16:00 +31°C° 0 mm 0 mps 738 mmHg 62%
    17:00 +31°C° 0 mm 0 mps 737 mmHg 65%
    18:00 +29°C° 0 mm 0 mps 737 mmHg 70%
    19:00 +28°C° 0 mm 0 mps 738 mmHg 75%
    20:00 +28°C° 0 mm 1 mps 738 mmHg 80%
    21:00 +27°C° 0.1 mm 1 mps 738 mmHg 84%
    22:00 +25°C° 0.1 mm 0 mps 739 mmHg 88%
    23:00 +24°C° 0.1 mm 0 mps 739 mmHg 91%

    Tomorrow, 26 April, Friday

    Time Temperature Precipitation Wind Pressure Humidity
    00:00 +24°C° 0 mm 0 mps 739 mmHg 92%
    01:00 +24°C° 0 mm 0 mps 739 mmHg 92%
    02:00 +23°C° 0 mm 0 mps 739 mmHg 93%
    03:00 +23°C° 0 mm 0 mps 739 mmHg 93%
    04:00 +23°C° 0 mm 0 mps 739 mmHg 93%
    05:00 +23°C° 0 mm 0 mps 739 mmHg 94%
    06:00 +24°C° 0 mm 0 mps 739 mmHg 89%
    07:00 +25°C° 0 mm 0 mps 739 mmHg 85%
    08:00 +26°C° 0 mm 0 mps 740 mmHg 81%
    09:00 +31°C° 0 mm 1 mps 740 mmHg 70%
    10:00 +33°C° 0 mm 1 mps 740 mmHg 59%
    11:00 +35°C° 0 mm 1 mps 740 mmHg 49%
    12:00 +36°C° 0 mm 1 mps 739 mmHg 46%
    13:00 +36°C° 0 mm 1 mps 738 mmHg 44%
    14:00 +37°C° 0 mm 1 mps 737 mmHg 42%
    15:00 +35°C° 0 mm 1 mps 737 mmHg 49%
    16:00 +34°C° 0 mm 1 mps 736 mmHg 56%
    17:00 +30°C° 0 mm 0 mps 736 mmHg 63%
    18:00 +31°C° 0 mm 1 mps 736 mmHg 68%
    19:00 +30°C° 0 mm 1 mps 737 mmHg 72%
    20:00 +28°C° 0 mm 1 mps 737 mmHg 77%
    21:00 +28°C° 0 mm 1 mps 738 mmHg 80%
    22:00 +25°C° 0 mm 0 mps 738 mmHg 82%
    23:00 +25°C° 0 mm 0 mps 738 mmHg 85%

    Day after tomorrow, 27 April, Saturday

    Time Temperature Precipitation Wind Pressure Humidity
    00:00 +24°C° 0 mm 0 mps 738 mmHg 85%
    01:00 +24°C° 0 mm 0 mps 738 mmHg 84%
    02:00 +24°C° 0 mm 0 mps 737 mmHg 84%
    03:00 +24°C° 0 mm 0 mps 737 mmHg 84%
    04:00 +23°C° 0 mm 0 mps 737 mmHg 83%
    05:00 +23°C° 0 mm 0 mps 737 mmHg 83%
    06:00 +24°C° 0 mm 0 mps 738 mmHg 80%
    07:00 +25°C° 0 mm 0 mps 739 mmHg 78%
    08:00 +26°C° 0 mm 0 mps 739 mmHg 75%
    09:00 +28°C° 0 mm 0 mps 739 mmHg 66%
    10:00 +31°C° 0 mm 0 mps 739 mmHg 58%
    11:00 +36°C° 0 mm 1 mps 739 mmHg 49%
    12:00 +33°C° 0 mm 0 mps 738 mmHg 50%
    13:00 +33°C° 0 mm 0 mps 737 mmHg 51%
    14:00 +33°C° 0 mm 0 mps 736 mmHg 52%
    15:00 +32°C° 0 mm 0 mps 736 mmHg 57%
    16:00 +31°C° 0 mm 0 mps 736 mmHg 62%
    17:00 +30°C° 0 mm 0 mps 736 mmHg 67%
    18:00 +28°C° 0.1 mm 0 mps 736 mmHg 75%
    19:00 +27°C° 0.1 mm 0 mps 736 mmHg 83%
    20:00 +27°C° 0.1 mm 1 mps 737 mmHg 91%
    21:00 +25°C° 0.5 mm 0 mps 737 mmHg 92%
    22:00 +24°C° 0.5 mm 0 mps 738 mmHg 94%
    23:00 +24°C° 0.5 mm 0 mps 738 mmHg 95%

    28 April, Sunday

    Time Temperature Precipitation Wind Pressure Humidity
    00:00 +24°C° 2.1 mm 0 mps 738 mmHg 95%
    01:00 +24°C° 2.1 mm 0 mps 737 mmHg 96%
    02:00 +24°C° 2.1 mm 0 mps 737 mmHg 96%
    03:00 +23°C° 1.2 mm 0 mps 737 mmHg 96%
    04:00 +23°C° 1.2 mm 0 mps 737 mmHg 96%
    05:00 +23°C° 1.2 mm 0 mps 737 mmHg 96%
    06:00 +24°C° 0 mm 0 mps 738 mmHg 95%
    07:00 +24°C° 0 mm 0 mps 738 mmHg 95%
    08:00 +25°C° 0 mm 0 mps 739 mmHg 94%
    09:00 +26°C° 1.2 mm 0 mps 739 mmHg 91%
    10:00 +27°C° 1.2 mm 0 mps 739 mmHg 88%
    11:00 +28°C° 1.2 mm 0 mps 740 mmHg 85%
    12:00 +31°C° 0.4 mm 1 mps 739 mmHg 77%
    13:00 +32°C° 0.4 mm 1 mps 738 mmHg 69%
    14:00 +33°C° 0.4 mm 1 mps 737 mmHg 61%
    15:00 +32°C° 0.5 mm 1 mps 737 mmHg 68%
    16:00 +31°C° 0.5 mm 1 mps 736 mmHg 76%
    17:00 +28°C° 0.5 mm 0 mps 736 mmHg 83%
    18:00 +26°C° 0.7 mm 0 mps 737 mmHg 87%
    19:00 +25°C° 0.7 mm 0 mps 737 mmHg 91%
    20:00 +24°C° 0.7 mm 0 mps 738 mmHg 95%
    21:00 +23°C° 0 mm 0 mps 738 mmHg 95%
    22:00 +23°C° 0 mm 0 mps 738 mmHg 95%
    23:00 +23°C° 0 mm 0 mps 738 mmHg 95%

    29 April, Monday

    Time Temperature Precipitation Wind Pressure Humidity
    00:00 +23°C° 0 mm 0 mps 738 mmHg 96%
    01:00 +23°C° 0 mm 0 mps 737 mmHg 96%
    02:00 +23°C° 0 mm 0 mps 737 mmHg 96%
    03:00 +23°C° 0 mm 0 mps 737 mmHg 97%
    04:00 +22°C° 0 mm 0 mps 737 mmHg 97%
    05:00 +22°C° 0 mm 0 mps 737 mmHg 97%
    06:00 +23°C° 0 mm 0 mps 738 mmHg 94%
    07:00 +24°C° 0 mm 0 mps 738 mmHg 92%
    08:00 +25°C° 0 mm 0 mps 739 mmHg 90%
    09:00 +28°C° 0 mm 0 mps 739 mmHg 77%
    10:00 +31°C° 0 mm 0 mps 739 mmHg 64%
    11:00 +34°C° 0 mm 0 mps 739 mmHg 51%
    12:00 +32°C° 1.5 mm 0 mps 738 mmHg 63%
    13:00 +33°C° 1.5 mm 1 mps 737 mmHg 75%
    14:00 +31°C° 1.5 mm 1 mps 736 mmHg 87%
    15:00 +31°C° 1 mm 1 mps 736 mmHg 87%
    16:00 +28°C° 1 mm 0 mps 736 mmHg 88%
    17:00 +28°C° 1 mm 0 mps 735 mmHg 88%
    18:00 +26°C° 0 mm 0 mps 736 mmHg 89%
    19:00 +25°C° 0 mm 0 mps 736 mmHg 91%
    20:00 +26°C° 0 mm 1 mps 737 mmHg 92%
    21:00 +26°C° 0 mm 1 mps 737 mmHg 92%
    22:00 +25°C° 0 mm 1 mps 737 mmHg 92%
    23:00 +25°C° 0 mm 1 mps 738 mmHg 92%

    30 April, Tuesday

    Time Temperature Precipitation Wind Pressure Humidity
    00:00 +25°C° 0.2 mm 1 mps 737 mmHg 92%
    01:00 +25°C° 0.2 mm 1 mps 737 mmHg 93%
    02:00 +25°C° 0.2 mm 1 mps 737 mmHg 94%
    03:00 +22°C° 0.6 mm 0 mps 737 mmHg 95%
    04:00 +22°C° 0.6 mm 0 mps 737 mmHg 95%
    05:00 +22°C° 0.6 mm 0 mps 737 mmHg 96%
    06:00 +23°C° 1 mm 0 mps 738 mmHg 96%
    07:00 +24°C° 1 mm 0 mps 738 mmHg 95%
    08:00 +24°C° 1 mm 0 mps 739 mmHg 95%
    09:00 +26°C° 1.3 mm 0 mps 739 mmHg 93%
    10:00 +27°C° 1.3 mm 0 mps 739 mmHg 91%
    11:00 +30°C° 1.3 mm 1 mps 739 mmHg 89%
    12:00 +30°C° 1 mm 1 mps 738 mmHg 89%
    13:00 +30°C° 1 mm 1 mps 738 mmHg 89%
    14:00 +30°C° 1 mm 1 mps 737 mmHg 89%
    15:00 +29°C° 0.6 mm 1 mps 737 mmHg 91%
    16:00 +27°C° 0.6 mm 0 mps 737 mmHg 94%
    17:00 +26°C° 0.6 mm 0 mps 737 mmHg 96%
    18:00 +25°C° 0.1 mm 0 mps 737 mmHg 96%
    19:00 +24°C° 0.1 mm 0 mps 738 mmHg 96%
    20:00 +24°C° 0.1 mm 0 mps 739 mmHg 96%
    21:00 +23°C° 0 mm 0 mps 739 mmHg 96%
    22:00 +23°C° 0 mm 0 mps 739 mmHg 96%
    23:00 +23°C° 0 mm 0 mps 739 mmHg 96%
    Show more